QPF
0.01 0.01 0.02 0.01 0.01 0.00 0.00 0.01 0.03 0.03 0.01 0.03 0.06 0.05 0.02 0.01 0.01 0.02 0.02 0.02 0.01 0.01 0.01 0.01 0.01 0.01 0.01 0.01 0.01 0.01 0.01 0.01 0.01 0.00 0.00 0.00 0.00 0.00 0.00 0.00 0.01 0.02 0.01 0.01
0.02 0.02 0.01 0.00 0.00 0.00 0.00 0.02 0.03 0.02 0.01 0.03 0.05 0.05 0.03 0.02 0.02 0.02 0.02 0.01 0.01 0.00 0.00 0.01 0.01 0.01 0.01 0.01 0.01 0.01 0.00 0.00 0.01 0.00 0.00 0.00 0.00 0.00 0.00 0.00 0.01 0.01 0.00 0.00
0.02 0.01 0.00 0.00 0.00 0.00 0.01 0.02 0.02 0.02 0.02 0.02 0.03 0.05 0.04 0.03 0.03 0.03 0.02 0.01 0.00 0.00 0.00 0.01 0.01 0.00 0.00 0.00 0.00 0.01 0.00 0.00 0.00 0.00 0.00 0.00 0.01 0.01 0.01 0.01 0.01 0.01 0.00 0.01
0.01 0.00 0.00 0.00 0.00 0.01 0.02 0.01 0.01 0.02 0.03 0.03 0.02 0.06 0.06 0.03 0.02 0.02 0.02 0.01 0.00 0.00 0.00 0.01 0.01 0.01 0.01 0.00 0.01 0.01 0.00 0.00 0.00 0.00 0.01 0.01 0.01 0.01 0.01 0.01 0.01 0.01 0.00 0.00
0.01 0.00 0.00 0.01 0.01 0.01 0.01 0.01 0.01 0.03 0.04 0.04 0.03 0.05 0.06 0.03 0.02 0.02 0.01 0.01 0.00 0.00 0.00 0.00 0.01 0.01 0.01 0.01 0.01 0.01 0.01 0.00 0.00 0.01 0.01 0.01 0.01 0.01 0.01 0.01 0.00 0.00 0.00 0.00
0.00 0.00 0.00 0.01 0.00 0.00 0.00 0.01 0.01 0.02 0.05 0.06 0.04 0.04 0.06 0.04 0.03 0.03 0.01 0.00 0.00 0.00 0.00 0.00 0.01 0.01 0.01 0.01 0.01 0.01 0.01 0.00 0.00 0.00 0.00 0.00 0.01 0.00 0.00 0.00 0.00 0.00 0.00 0.00
0.01 0.01 0.00 0.00 0.01 0.01 0.01 0.02 0.04 0.05 0.06 0.05 0.02 0.02 0.04 0.02 0.01 0.02 0.02 0.01 0.00 0.00 0.00 0.00 0.00 0.01 0.01 0.01 0.01 0.01 0.01 0.01 0.01 0.01 0.00 0.00 0.00 0.00 0.00 0.00 0.00 0.00 0.01 0.01
0.00 0.01 0.00 0.00 0.00 0.01 0.01 0.02 0.05 0.05 0.05 0.03 0.01 0.02 0.02 0.00 0.00 0.00 0.01 0.01 0.01 0.00 0.00 0.00 0.00 0.01 0.01 0.00 0.01 0.01 0.00 0.01 0.01 0.01 0.00 0.00 0.01 0.01 0.00 0.00 0.00 0.00 0.00 0.00
0.00 0.01 0.00 0.00 0.00 0.00 0.01 0.01 0.02 0.02 0.02 0.03 0.02 0.02 0.01 0.00 0.00 0.00 0.00 0.01 0.00 0.00 0.00 0.00 0.00 0.00 0.00 0.00 0.00 0.00 0.01 0.01 0.01 0.01 0.01 0.01 0.01 0.01 0.00 0.00 0.00 0.00 0.00 0.00
0.00 0.01 0.00 0.00 0.00 0.00 0.01 0.01 0.01 0.02 0.04 0.06 0.04 0.04 0.04 0.01 0.01 0.00 0.00 0.00 0.01 0.00 0.00 0.00 0.00 0.00 0.00 0.00 0.00 0.00 0.01 0.01 0.01 0.01 0.01 0.01 0.01 0.01 0.01 0.00 0.00 0.00 0.00 0.00
0.00 0.01 0.01 0.00 0.00 0.01 0.01 0.02 0.02 0.02 0.02 0.06 0.07 0.05 0.02 0.02 0.01 0.00 0.00 0.00 0.00 0.00 0.00 0.00 0.00 0.00 0.00 0.00 0.00 0.00 0.00 0.00 0.00 0.00 0.01 0.01 0.01 0.00 0.00 0.00 0.00 0.00 0.00 0.00
0.00 0.01 0.01 0.00 0.00 0.00 0.00 0.01 0.02 0.05 0.04 0.04 0.05 0.05 0.01 0.01 0.01 0.00 0.00 0.00 0.00 0.00 0.00 0.00 0.00 0.00 0.00 0.00 0.00 0.00 0.00 0.00 0.00 0.00 0.01 0.01 0.01 0.01 0.01 0.00 0.00 0.00 0.00 0.00
0.00 0.00 0.01 0.01 0.01 0.00 0.00 0.00 0.01 0.02 0.03 0.04 0.06 0.06 0.02 0.00 0.00 0.01 0.00 0.00 0.00 0.00 0.00 0.00 0.00 0.00 0.00 0.00 0.01 0.01 0.00 0.00 0.00 0.01 0.01 0.01 0.01 0.01 0.01 0.01 0.00 0.00 0.00 0.00
0.00 0.01 0.01 0.01 0.01 0.01 0.00 0.00 0.00 0.01 0.02 0.03 0.03 0.05 0.02 0.01 0.00 0.01 0.01 0.00 0.00 0.00 0.00 0.00 0.01 0.01 0.01 0.01 0.01 0.01 0.00 0.00 0.00 0.00 0.00 0.01 0.01 0.02 0.01 0.01 0.00 0.00 0.00 0.00
0.00 0.00 0.00 0.00 0.00 0.00 0.00 0.00 0.00 0.01 0.01 0.01 0.01 0.02 0.01 0.01 0.00 0.01 0.01 0.00 0.00 0.00 0.00 0.00 0.01 0.01 0.01 0.00 0.00 0.00 0.00 0.00 0.01 0.01 0.01 0.01 0.01 0.01 0.01 0.01 0.01 0.00 0.00 0.00
0.00 0.01 0.00 0.00 0.00 0.00 0.00 0.00 0.00 0.00 0.00 0.01 0.01 0.01 0.00 0.00 0.00 0.00 0.00 0.00 0.00 0.00 0.00 0.00 0.01 0.01 0.01 0.01 0.00 0.00 0.00 0.00 0.00 0.00 0.01 0.02 0.01 0.01 0.01 0.01 0.00 0.00 0.00 0.00
0.01 0.01 0.01 0.01 0.00 0.00 0.01 0.00 0.00 0.00 0.00 0.01 0.01 0.00 0.00 0.00 0.00 0.00 0.00 0.00 0.00 0.00 0.00 0.00 0.00 0.01 0.01 0.01 0.01 0.00 0.00 0.00 0.00 0.00 0.00 0.02 0.02 0.01 0.01 0.01 0.01 0.01 0.01 0.01
0.00 0.01 0.01 0.01 0.01 0.01 0.01 0.00 0.00 0.00 0.00 0.00 0.00 0.00 0.00 0.00 0.00 0.00 0.00 0.00 0.00 0.00 0.00 0.00 0.00 0.00 0.01 0.01 0.01 0.00 0.01 0.01 0.01 0.00 0.00 0.01 0.01 0.01 0.01 0.01 0.01 0.01 0.01 0.01
0.00 0.01 0.02 0.02 0.02 0.01 0.01 0.00 0.00 0.01 0.00 0.00 0.00 0.00 0.00 0.01 0.00 0.01 0.00 0.00 0.00 0.00 0.00 0.00 0.00 0.00 0.00 0.01 0.00 0.00 0.00 0.00 0.00 0.00 0.00 0.00 0.00 0.00 0.00 0.00 0.01 0.01 0.02 0.02
0.00 0.01 0.01 0.02 0.02 0.02 0.01 0.00 0.00 0.01 0.01 0.01 0.00 0.00 0.00 0.00 0.01 0.01 0.00 0.00 0.00 0.00 0.00 0.00 0.00 0.00 0.00 0.00 0.00 0.00 0.01 0.00 0.00 0.00 0.00 0.00 0.00 0.00 0.00 0.00 0.01 0.02 0.03 0.03
0.01 0.01 0.01 0.02 0.02 0.01 0.00 0.00 0.00 0.02 0.03 0.01 0.00 0.00 0.00 0.00 0.01 0.01 0.00 0.00 0.00 0.00 0.00 0.00 0.00 0.00 0.00 0.00 0.00 0.00 0.00 0.01 0.01 0.01 0.00 0.00 0.00 0.00 0.00 0.00 0.01 0.02 0.02 0.02
0.02 0.02 0.02 0.01 0.02 0.01 0.00 0.00 0.01 0.01 0.01 0.01 0.00 0.00 0.00 0.00 0.01 0.00 0.01 0.00 0.00 0.00 0.00 0.00 0.00 0.00 0.00 0.00 0.00 0.00 0.00 0.00 0.00 0.00 0.00 0.00 0.00 0.00 0.00 0.00 0.00 0.01 0.01 0.01
0.02 0.02 0.02 0.02 0.01 0.00 0.00 0.01 0.01 0.01 0.01 0.00 0.00 0.00 0.00 0.00 0.00 0.01 0.01 0.01 0.00 0.00 0.00 0.00 0.00 0.00 0.00 0.00 0.00 0.00 0.00 0.00 0.00 0.00 0.00 0.00 0.00 0.00 0.00 0.00 0.00 0.01 0.01 0.01
0.01 0.01 0.01 0.02 0.01 0.01 0.01 0.01 0.01 0.01 0.01 0.00 0.00 0.00 0.00 0.00 0.00 0.01 0.01 0.01 0.01 0.00 0.00 0.00 0.00 0.00 0.01 0.01 0.01 0.01 0.01 0.01 0.01 0.01 0.01 0.01 0.01 0.01 0.01 0.01 0.01 0.01 0.01 0.01
0.01 0.01 0.01 0.01 0.01 0.01 0.01 0.01 0.01 0.01 0.01 0.00 0.00 0.00 0.01 0.01 0.01 0.01 0.01 0.01 0.01 0.01 0.01 0.01 0.01 0.01 0.01 0.01 0.01 0.01 0.01 0.01 0.02 0.02 0.02 0.02 0.02 0.01 0.01 0.01 0.01 0.01 0.01 0.02
0.00 0.01 0.01 0.01 0.01 0.01 0.00 0.00 0.01 0.01 0.01 0.01 0.01 0.01 0.01 0.01 0.02 0.02 0.02 0.02 0.01 0.01 0.01 0.01 0.01 0.00 0.00 0.00 0.00 0.00 0.00 0.01 0.02 0.03 0.03 0.02 0.02 0.02 0.01 0.01 0.01 0.01 0.02 0.02
MSLP
1011.80 1012.27 1012.67 1013.01 1013.28 1013.50 1013.67 1013.81 1013.90 1013.96 1013.96 1013.91 1013.80 1013.64 1013.46 1013.26 1013.07 1012.90 1012.77 1012.68 1012.61 1012.58 1012.55 1012.55 1012.57 1012.63 1012.73 1012.90 1013.14 1013.46 1013.84 1014.29 1014.76 1015.24 1015.68 1016.06 1016.36 1016.57 1016.67 1016.70 1016.66 1016.59 1016.51 1016.45
1012.35 1012.76 1013.09 1013.36 1013.58 1013.77 1013.93 1014.08 1014.21 1014.29 1014.32 1014.27 1014.14 1013.93 1013.67 1013.38 1013.09 1012.84 1012.66 1012.54 1012.48 1012.48 1012.52 1012.58 1012.66 1012.75 1012.87 1013.03 1013.26 1013.55 1013.93 1014.37 1014.86 1015.37 1015.85 1016.28 1016.62 1016.86 1016.98 1016.99 1016.93 1016.83 1016.71 1016.62
1012.81 1013.15 1013.42 1013.63 1013.82 1013.99 1014.17 1014.35 1014.52 1014.65 1014.71 1014.66 1014.51 1014.24 1013.90 1013.52 1013.14 1012.80 1012.56 1012.41 1012.36 1012.40 1012.49 1012.62 1012.76 1012.90 1013.05 1013.22 1013.43 1013.71 1014.06 1014.48 1014.97 1015.48 1015.98 1016.43 1016.79 1017.05 1017.18 1017.20 1017.14 1017.02 1016.89 1016.78
1013.15 1013.43 1013.65 1013.84 1014.01 1014.19 1014.41 1014.64 1014.86 1015.03 1015.12 1015.08 1014.90 1014.58 1014.16 1013.68 1013.20 1012.79 1012.48 1012.30 1012.25 1012.31 1012.46 1012.64 1012.84 1013.03 1013.22 1013.41 1013.62 1013.88 1014.21 1014.60 1015.06 1015.56 1016.05 1016.50 1016.87 1017.14 1017.28 1017.32 1017.27 1017.17 1017.05 1016.95
1013.39 1013.62 1013.82 1013.99 1014.17 1014.39 1014.65 1014.93 1015.21 1015.43 1015.53 1015.49 1015.29 1014.92 1014.42 1013.86 1013.29 1012.79 1012.42 1012.20 1012.13 1012.20 1012.38 1012.61 1012.86 1013.10 1013.33 1013.54 1013.77 1014.02 1014.33 1014.70 1015.13 1015.59 1016.06 1016.50 1016.86 1017.13 1017.29 1017.35 1017.33 1017.25 1017.17 1017.09
1013.52 1013.74 1013.92 1014.11 1014.32 1014.59 1014.89 1015.23 1015.55 1015.80 1015.93 1015.89 1015.66 1015.24 1014.68 1014.04 1013.40 1012.82 1012.38 1012.11 1012.01 1012.07 1012.25 1012.51 1012.80 1013.08 1013.34 1013.59 1013.83 1014.09 1014.39 1014.74 1015.14 1015.57 1016.01 1016.42 1016.77 1017.03 1017.20 1017.28 1017.29 1017.26 1017.22 1017.19
1013.56 1013.78 1013.98 1014.20 1014.46 1014.77 1015.13 1015.51 1015.86 1016.14 1016.27 1016.21 1015.96 1015.50 1014.90 1014.20 1013.50 1012.86 1012.36 1012.03 1011.89 1011.91 1012.08 1012.34 1012.64 1012.95 1013.24 1013.52 1013.78 1014.06 1014.36 1014.71 1015.09 1015.49 1015.90 1016.27 1016.60 1016.85 1017.03 1017.12 1017.17 1017.18 1017.19 1017.21
1013.49 1013.73 1013.98 1014.25 1014.56 1014.92 1015.32 1015.73 1016.09 1016.37 1016.49 1016.42 1016.15 1015.67 1015.04 1014.32 1013.58 1012.91 1012.35 1011.97 1011.78 1011.76 1011.88 1012.11 1012.40 1012.71 1013.03 1013.33 1013.62 1013.93 1014.25 1014.59 1014.97 1015.35 1015.73 1016.08 1016.38 1016.61 1016.78 1016.89 1016.97 1017.02 1017.07 1017.15
1013.30 1013.59 1013.90 1014.23 1014.60 1015.01 1015.43 1015.85 1016.21 1016.46 1016.57 1016.48 1016.19 1015.71 1015.08 1014.36 1013.62 1012.93 1012.35 1011.93 1011.68 1011.61 1011.68 1011.86 1012.11 1012.41 1012.73 1013.05 1013.38 1013.71 1014.06 1014.42 1014.80 1015.18 1015.54 1015.86 1016.14 1016.35 1016.51 1016.63 1016.72 1016.80 1016.90 1017.02
1012.99 1013.35 1013.73 1014.14 1014.57 1015.01 1015.45 1015.86 1016.19 1016.40 1016.47 1016.35 1016.06 1015.59 1014.99 1014.30 1013.59 1012.93 1012.35 1011.91 1011.62 1011.48 1011.49 1011.61 1011.82 1012.08 1012.39 1012.72 1013.08 1013.45 1013.84 1014.23 1014.62 1015.01 1015.36 1015.66 1015.92 1016.12 1016.27 1016.39 1016.49 1016.59 1016.72 1016.88
1012.58 1013.02 1013.48 1013.97 1014.46 1014.93 1015.37 1015.74 1016.02 1016.18 1016.20 1016.05 1015.75 1015.31 1014.76 1014.14 1013.49 1012.88 1012.34 1011.90 1011.58 1011.40 1011.34 1011.40 1011.54 1011.77 1012.05 1012.39 1012.77 1013.18 1013.60 1014.04 1014.47 1014.86 1015.22 1015.53 1015.77 1015.96 1016.11 1016.22 1016.33 1016.45 1016.60 1016.78
1012.12 1012.65 1013.20 1013.76 1014.29 1014.78 1015.20 1015.52 1015.73 1015.82 1015.78 1015.60 1015.30 1014.89 1014.40 1013.86 1013.31 1012.78 1012.29 1011.88 1011.56 1011.34 1011.23 1011.22 1011.31 1011.49 1011.75 1012.09 1012.48 1012.92 1013.40 1013.87 1014.34 1014.76 1015.14 1015.45 1015.71 1015.90 1016.05 1016.17 1016.29 1016.43 1016.59 1016.79
1011.70 1012.29 1012.92 1013.53 1014.10 1014.59 1014.97 1015.23 1015.36 1015.37 1015.26 1015.04 1014.74 1014.37 1013.95 1013.51 1013.06 1012.62 1012.22 1011.85 1011.55 1011.31 1011.16 1011.09 1011.12 1011.25 1011.49 1011.81 1012.22 1012.69 1013.20 1013.72 1014.22 1014.68 1015.09 1015.43 1015.70 1015.92 1016.09 1016.23 1016.38 1016.53 1016.72 1016.93
1011.37 1012.02 1012.69 1013.34 1013.92 1014.39 1014.72 1014.90 1014.94 1014.85 1014.67 1014.41 1014.11 1013.78 1013.44 1013.10 1012.76 1012.43 1012.11 1011.81 1011.53 1011.28 1011.10 1010.98 1010.96 1011.04 1011.24 1011.55 1011.96 1012.45 1012.99 1013.55 1014.09 1014.59 1015.04 1015.41 1015.72 1015.97 1016.18 1016.36 1016.54 1016.74 1016.95 1017.18
1011.20 1011.86 1012.55 1013.20 1013.76 1014.18 1014.44 1014.53 1014.48 1014.30 1014.05 1013.76 1013.46 1013.17 1012.90 1012.66 1012.44 1012.22 1011.99 1011.74 1011.49 1011.25 1011.03 1010.88 1010.80 1010.84 1011.00 1011.28 1011.68 1012.18 1012.73 1013.32 1013.90 1014.44 1014.92 1015.35 1015.70 1016.01 1016.27 1016.51 1016.74 1016.98 1017.23 1017.48
1011.20 1011.83 1012.48 1013.09 1013.60 1013.95 1014.12 1014.12 1013.98 1013.72 1013.42 1013.10 1012.81 1012.57 1012.38 1012.24 1012.12 1011.99 1011.85 1011.67 1011.45 1011.20 1010.96 1010.76 1010.64 1010.62 1010.73 1010.98 1011.36 1011.84 1012.41 1013.01 1013.61 1014.18 1014.71 1015.18 1015.59 1015.96 1016.28 1016.59 1016.90 1017.19 1017.49 1017.78
1011.33 1011.88 1012.45 1012.97 1013.39 1013.65 1013.73 1013.64 1013.41 1013.10 1012.76 1012.43 1012.17 1011.99 1011.88 1011.84 1011.82 1011.79 1011.72 1011.58 1011.39 1011.14 1010.87 1010.62 1010.45 1010.38 1010.43 1010.64 1010.98 1011.44 1011.99 1012.59 1013.21 1013.81 1014.37 1014.88 1015.35 1015.78 1016.19 1016.57 1016.95 1017.31 1017.66 1017.99
1011.52 1011.94 1012.39 1012.78 1013.08 1013.22 1013.21 1013.04 1012.75 1012.41 1012.06 1011.76 1011.55 1011.44 1011.42 1011.48 1011.55 1011.60 1011.59 1011.50 1011.32 1011.06 1010.77 1010.48 1010.24 1010.11 1010.11 1010.27 1010.57 1011.00 1011.53 1012.12 1012.74 1013.35 1013.94 1014.50 1015.02 1015.51 1015.99 1016.45 1016.89 1017.32 1017.73 1018.11
1011.67 1011.93 1012.22 1012.46 1012.61 1012.64 1012.53 1012.29 1011.98 1011.63 1011.32 1011.07 1010.94 1010.92 1011.01 1011.16 1011.32 1011.44 1011.49 1011.43 1011.26 1010.99 1010.66 1010.33 1010.05 1009.86 1009.82 1009.92 1010.18 1010.58 1011.08 1011.66 1012.28 1012.90 1013.51 1014.10 1014.66 1015.21 1015.74 1016.26 1016.77 1017.26 1017.72 1018.14
1011.74 1011.81 1011.91 1011.98 1011.99 1011.90 1011.71 1011.43 1011.10 1010.79 1010.53 1010.38 1010.34 1010.43 1010.62 1010.86 1011.11 1011.30 1011.40 1011.37 1011.21 1010.93 1010.58 1010.22 1009.90 1009.67 1009.58 1009.65 1009.88 1010.25 1010.74 1011.31 1011.92 1012.55 1013.18 1013.80 1014.40 1014.98 1015.56 1016.13 1016.68 1017.22 1017.72 1018.17
1011.68 1011.57 1011.48 1011.39 1011.25 1011.05 1010.79 1010.49 1010.19 1009.93 1009.76 1009.70 1009.77 1009.97 1010.26 1010.60 1010.93 1011.18 1011.32 1011.31 1011.16 1010.88 1010.53 1010.15 1009.81 1009.57 1009.46 1009.52 1009.73 1010.10 1010.59 1011.16 1011.78 1012.43 1013.08 1013.72 1014.34 1014.95 1015.56 1016.15 1016.73 1017.29 1017.82 1018.29
1011.52 1011.23 1010.98 1010.73 1010.47 1010.18 1009.88 1009.58 1009.32 1009.13 1009.04 1009.09 1009.27 1009.57 1009.95 1010.37 1010.76 1011.06 1011.23 1011.25 1011.12 1010.86 1010.52 1010.15 1009.83 1009.59 1009.50 1009.57 1009.80 1010.18 1010.69 1011.29 1011.93 1012.60 1013.27 1013.93 1014.58 1015.21 1015.83 1016.43 1017.02 1017.59 1018.11 1018.59
1011.31 1010.88 1010.48 1010.11 1009.76 1009.41 1009.09 1008.81 1008.59 1008.47 1008.47 1008.60 1008.87 1009.25 1009.70 1010.17 1010.60 1010.94 1011.14 1011.19 1011.09 1010.86 1010.56 1010.23 1009.95 1009.76 1009.71 1009.82 1010.10 1010.52 1011.07 1011.71 1012.39 1013.09 1013.80 1014.48 1015.14 1015.78 1016.41 1017.01 1017.59 1018.14 1018.66 1019.12
1011.10 1010.56 1010.07 1009.61 1009.20 1008.84 1008.52 1008.27 1008.10 1008.04 1008.10 1008.30 1008.62 1009.04 1009.53 1010.02 1010.47 1010.83 1011.05 1011.14 1011.07 1010.90 1010.65 1010.40 1010.18 1010.07 1010.09 1010.27 1010.61 1011.09 1011.70 1012.39 1013.12 1013.87 1014.61 1015.32 1016.00 1016.65 1017.27 1017.86 1018.43 1018.96 1019.45 1019.90
1010.90 1010.30 1009.76 1009.28 1008.85 1008.49 1008.20 1007.99 1007.87 1007.86 1007.97 1008.20 1008.54 1008.97 1009.45 1009.94 1010.39 1010.74 1010.99 1011.10 1011.09 1010.98 1010.82 1010.65 1010.52 1010.50 1010.61 1010.87 1011.28 1011.84 1012.51 1013.26 1014.04 1014.83 1015.61 1016.35 1017.05 1017.71 1018.33 1018.91 1019.46 1019.97 1020.43 1020.86
1010.70 1010.09 1009.55 1009.08 1008.69 1008.37 1008.13 1007.97 1007.89 1007.92 1008.05 1008.28 1008.61 1009.02 1009.47 1009.93 1010.36 1010.71 1010.97 1011.12 1011.17 1011.14 1011.07 1010.99 1010.97 1011.04 1011.24 1011.58 1012.06 1012.68 1013.40 1014.19 1015.02 1015.85 1016.66 1017.43 1018.15 1018.82 1019.44 1020.02 1020.55 1021.04 1021.50 1021.90
Thickness
5768 5756 5746 5751 5756 5755 5751 5743 5738 5744 5756 5746 5738 5737 5742 5746 5744 5741 5739 5739 5739 5740 5744 5745 5744 5744 5742 5741 5738 5736 5735 5734 5733 5730 5729 5727 5726 5727 5727 5726 5725 5724 5724 5723
5752 5744 5757 5762 5760 5755 5749 5740 5736 5743 5754 5746 5736 5736 5744 5746 5744 5744 5742 5740 5740 5740 5741 5741 5741 5740 5739 5738 5736 5735 5734 5733 5731 5730 5729 5728 5726 5726 5725 5724 5723 5722 5721 5721
5743 5751 5763 5757 5749 5745 5743 5738 5735 5735 5744 5748 5737 5729 5737 5745 5747 5745 5745 5744 5743 5741 5740 5739 5739 5738 5737 5735 5735 5735 5734 5732 5731 5730 5728 5727 5725 5723 5721 5720 5720 5720 5719 5719
5748 5757 5755 5748 5744 5743 5734 5746 5742 5737 5729 5726 5732 5711 5729 5739 5738 5739 5740 5741 5742 5743 5742 5740 5738 5736 5736 5735 5736 5735 5733 5732 5731 5729 5726 5723 5718 5716 5718 5719 5718 5718 5718 5717
5743 5750 5746 5740 5743 5746 5740 5748 5742 5737 5729 5723 5730 5718 5723 5737 5730 5734 5738 5740 5742 5743 5742 5740 5739 5737 5736 5735 5734 5733 5732 5730 5729 5727 5725 5722 5720 5719 5720 5720 5718 5717 5716 5716
5747 5756 5753 5747 5750 5750 5746 5742 5739 5736 5726 5708 5727 5720 5716 5730 5734 5736 5740 5742 5743 5744 5743 5741 5740 5737 5735 5733 5731 5730 5728 5726 5727 5726 5724 5722 5719 5718 5717 5716 5715 5715 5715 5715
5736 5743 5751 5751 5738 5741 5738 5721 5707 5704 5701 5709 5737 5726 5724 5742 5748 5745 5743 5744 5745 5744 5742 5739 5736 5733 5731 5729 5728 5727 5726 5724 5725 5724 5724 5722 5720 5719 5717 5715 5714 5713 5713 5712
5724 5722 5741 5745 5738 5730 5731 5724 5702 5693 5700 5712 5730 5723 5734 5753 5755 5754 5750 5747 5746 5744 5742 5739 5736 5733 5730 5728 5727 5726 5724 5723 5724 5723 5723 5723 5721 5719 5718 5717 5716 5715 5713 5713
5729 5724 5745 5748 5748 5740 5728 5726 5732 5716 5714 5710 5720 5729 5739 5751 5749 5749 5747 5744 5742 5742 5740 5738 5737 5734 5731 5728 5727 5726 5725 5723 5723 5723 5723 5722 5721 5719 5718 5718 5717 5716 5715 5714
5741 5724 5735 5743 5743 5742 5738 5733 5724 5710 5697 5694 5709 5716 5715 5727 5733 5741 5741 5740 5740 5741 5740 5738 5736 5734 5732 5730 5728 5727 5726 5724 5723 5723 5722 5721 5720 5719 5718 5717 5716 5715 5714 5713
5743 5726 5726 5731 5726 5725 5728 5725 5722 5717 5714 5696 5691 5705 5735 5734 5737 5737 5740 5741 5740 5739 5738 5736 5734 5734 5732 5730 5728 5726 5725 5724 5723 5723 5722 5720 5719 5718 5718 5716 5715 5714 5713 5712
5738 5728 5719 5726 5740 5743 5735 5729 5722 5704 5705 5711 5700 5705 5745 5744 5743 5741 5741 5741 5741 5740 5738 5735 5734 5733 5730 5729 5728 5727 5726 5724 5723 5723 5721 5719 5718 5717 5715 5714 5714 5713 5712 5711
5729 5720 5707 5708 5718 5729 5727 5729 5729 5723 5714 5706 5697 5705 5742 5744 5742 5742 5740 5739 5739 5738 5736 5734 5732 5730 5729 5727 5727 5726 5725 5724 5723 5722 5719 5717 5716 5714 5713 5713 5712 5712 5711 5709
5727 5718 5711 5700 5708 5719 5717 5721 5726 5720 5706 5704 5707 5712 5728 5733 5735 5737 5738 5738 5737 5736 5734 5731 5729 5728 5727 5727 5726 5725 5724 5724 5722 5720 5717 5715 5714 5713 5712 5711 5710 5710 5709 5707
5723 5712 5718 5722 5728 5726 5722 5720 5721 5718 5718 5710 5714 5718 5725 5731 5734 5736 5737 5736 5734 5733 5732 5730 5727 5727 5726 5726 5726 5725 5724 5723 5721 5718 5715 5714 5714 5713 5711 5709 5708 5707 5706 5704
5718 5709 5711 5712 5722 5722 5717 5720 5720 5719 5721 5719 5719 5719 5735 5739 5738 5736 5735 5734 5731 5730 5731 5730 5729 5727 5726 5726 5725 5725 5723 5722 5721 5717 5714 5713 5712 5710 5708 5707 5705 5704 5702 5701
5709 5704 5697 5698 5713 5712 5703 5717 5717 5717 5723 5720 5712 5720 5732 5730 5732 5733 5733 5732 5730 5730 5730 5729 5729 5727 5727 5727 5727 5724 5724 5723 5720 5716 5713 5711 5709 5707 5706 5705 5702 5700 5698 5696
5704 5699 5694 5693 5696 5679 5709 5732 5728 5721 5722 5726 5725 5728 5731 5731 5733 5737 5737 5733 5731 5731 5730 5729 5729 5728 5728 5729 5728 5727 5724 5722 5718 5715 5712 5710 5707 5704 5703 5701 5698 5697 5695 5692
5709 5697 5687 5684 5679 5689 5709 5722 5723 5714 5713 5726 5725 5727 5730 5733 5730 5730 5736 5736 5734 5732 5732 5731 5731 5730 5728 5728 5727 5724 5721 5719 5715 5713 5711 5709 5706 5702 5700 5697 5695 5694 5691 5689
5704 5699 5685 5679 5671 5672 5697 5721 5728 5715 5701 5723 5725 5724 5725 5725 5709 5715 5730 5732 5732 5732 5731 5730 5730 5729 5726 5726 5725 5721 5717 5715 5712 5711 5710 5708 5705 5701 5697 5695 5693 5691 5689 5686
5682 5681 5676 5673 5671 5683 5707 5719 5717 5688 5693 5717 5720 5719 5719 5715 5713 5721 5728 5729 5730 5729 5729 5728 5726 5724 5723 5724 5722 5717 5715 5712 5712 5710 5708 5705 5702 5699 5696 5693 5691 5688 5685 5682
5679 5673 5672 5672 5666 5673 5706 5708 5698 5697 5710 5714 5715 5716 5715 5715 5718 5720 5722 5722 5724 5724 5724 5723 5721 5719 5720 5721 5718 5714 5711 5712 5710 5707 5703 5700 5698 5695 5693 5689 5686 5684 5680 5676
5683 5682 5680 5679 5679 5696 5704 5703 5706 5709 5706 5708 5708 5710 5710 5709 5711 5713 5715 5717 5718 5719 5719 5718 5716 5714 5715 5716 5714 5709 5708 5708 5706 5701 5697 5695 5692 5690 5687 5683 5680 5677 5674 5670
5684 5690 5683 5679 5685 5692 5697 5700 5702 5703 5702 5704 5705 5705 5705 5703 5705 5706 5708 5711 5712 5713 5713 5713 5711 5708 5708 5709 5708 5706 5705 5704 5700 5695 5692 5689 5686 5682 5680 5677 5674 5670 5666 5663
5675 5678 5675 5674 5680 5685 5688 5692 5694 5696 5698 5698 5698 5699 5700 5699 5699 5700 5702 5705 5706 5706 5707 5707 5704 5702 5702 5703 5702 5701 5700 5698 5694 5690 5687 5684 5680 5676 5671 5667 5664 5662 5660 5658
5674 5671 5666 5665 5675 5675 5678 5687 5690 5689 5688 5689 5689 5690 5693 5695 5695 5696 5697 5699 5700 5700 5701 5700 5698 5697 5697 5697 5696 5696 5695 5693 5689 5685 5681 5677 5673 5670 5665 5661 5655 5653 5652 5650